CW3512 Weather Reports


Display with metric or nautical units.
time (UTC)temp
F
wind
direction
speed
MPH
gust
MPH
rain 1hr
in
rain 24hr
in
rain mn
in
humidity
%
barometer
mb
20260508224519 69 0.0 5.0 0.00 0.02 0.01 38 1010.9
20260508223519 69 0.0 0.0 0.00 0.02 0.01 37 1010.9
20260508222539 69 0.0 1.0 0.00 0.02 0.01 36 1011.0
20260508221518 69 0.0 5.0 0.00 0.02 0.01 39 1010.9
20260508220520 69 225 1.0 5.0 0.00 0.02 0.01 36 1010.8
20260508215518 69 0.0 0.0 0.00 0.02 0.01 38 1010.8
20260508214519 69 0.0 5.0 0.00 0.02 0.01 37 1010.6
20260508213539 69 158 2.0 8.0 0.00 0.02 0.01 36 1010.5
20260508212519 70 158 1.0 9.0 0.00 0.02 0.01 37 1010.9
20260508211519 69 0.0 1.0 0.00 0.02 0.01 38 1011.1
20260508210519 70 0.0 0.0 0.00 0.03 0.01 37 1011.4
20260508205518 70 0.0 5.0 0.00 0.03 0.01 38 1011.4
20260508204518 70 0.0 1.0 0.00 0.03 0.01 37 1011.6
20260508203518 70 0.0 0.0 0.00 0.03 0.01 38 1011.8
20260508202519 70 0.0 1.0 0.00 0.03 0.01 38 1012.1
20260508201520 70 0.0 5.0 0.00 0.03 0.01 37 1012.1
20260508200519 70 0.0 5.0 0.00 0.03 0.01 38 1012.1
20260508195518 70 0.0 8.0 0.00 0.03 0.01 39 1011.9
20260508194539 70 0.0 0.0 0.00 0.03 0.01 39 1012.1
20260508193518 70 0.0 0.0 0.00 0.03 0.01 36 1012.2
20260508192524 70 0.0 1.0 0.00 0.03 0.01 37 1012.5
20260508192020 70 0.0 0.0 0.00 0.03 0.01 39 1012.3
20260508191021 70 0.0 4.0 0.00 0.03 0.01 36 1012.5
20260508190023 70 0.0 1.0 0.00 0.03 0.01 37 1012.7
20260508185019 69 225 1.0 5.0 0.00 0.03 0.01 38 1012.8
20260508184018 69 158 2.0 6.0 0.00 0.03 0.01 39 1012.9
20260508183018 69 0.0 5.0 0.00 0.03 0.01 39 1013.2
20260508182044 69 0.0 8.0 0.00 0.03 0.01 40 1013.5
20260508181518 68 0.0 8.0 0.00 0.03 0.01 40 1013.6
20260508180518 69 0.0 6.0 0.00 0.03 0.01 41 1013.8
20260508175518 68 0.0 0.0 0.00 0.03 0.01 42 1013.9
20260508174519 68 0.0 0.0 0.00 0.03 0.01 43 1014.1
20260508173519 67 0.0 0.0 0.00 0.03 0.01 43 1014.4
20260508172520 67 0.0 0.0 0.00 0.03 0.01 42 1014.5
20260508171518 67 0.0 0.0 0.00 0.03 0.01 43 1014.8
20260508170538 67 0.0 0.0 0.00 0.03 0.01 43 1015.0
20260508165518 67 0.0 0.0 0.00 0.03 0.01 45 1015.2
20260508164518 66 0.0 1.0 0.01 0.03 0.01 45 1015.6
20260508163518 66 0.0 0.0 0.01 0.03 0.01 46 1015.7
20260508162518 66 0.0 0.0 0.01 0.03 0.01 47 1015.8
20260508161518 65 0.0 0.0 0.01 0.03 0.01 46 1015.8
20260508160558 65 0.0 0.0 0.01 0.03 0.01 46 1016.0
20260508155518 65 0.0 0.0 0.01 0.03 0.01 46 1016.1
20260508154518 65 0.0 0.0 0.00 0.02 0.00 46 1016.2
20260508153518 64 0.0 0.0 0.00 0.02 0.00 48 1016.4
20260508152518 64 0.0 0.0 0.00 0.02 0.00 52 1016.6
20260508151518 63 0.0 0.0 0.00 0.02 0.00 49 1016.6
20260508150518 63 0.0 0.0 0.00 0.02 0.00 51 1016.7
20260508145520 63 0.0 0.0 0.00 0.02 0.00 49 1016.7
20260508144518 62 0.0 0.0 0.00 0.02 0.00 49 1016.6
20260508143518 62 0.0 0.0 0.00 0.03 0.00 50 1016.6
20260508142518 61 0.0 4.0 0.00 0.03 0.00 49 1016.7
20260508141518 60 0.0 0.0 0.00 0.03 0.00 50 1016.6
20260508140518 60 0.0 0.0 0.00 0.03 0.00 52 1016.7
20260508135538 59 0.0 0.0 0.00 0.03 0.00 50 1016.7
20260508134518 59 0.0 0.0 0.00 0.03 0.00 54 1016.7
20260508133518 58 0.0 0.0 0.00 0.03 0.00 57 1016.6
20260508132518 57 0.0 0.0 0.00 0.03 0.00 57 1016.6
20260508131517 56 0.0 0.0 0.00 0.03 0.00 61 1016.6
20260508130518 55 0.0 0.0 0.00 0.03 0.00 61 1016.6
20260508125517 54 0.0 0.0 0.00 0.03 0.00 59 1016.6
20260508124539 54 0.0 0.0 0.00 0.03 0.00 62 1016.5
20260508123538 53 0.0 0.0 0.00 0.03 0.00 64 1016.5
20260508122522 51 0.0 0.0 0.00 0.03 0.00 68 1016.4
20260508121520 50 0.0 0.0 0.00 0.03 0.00 71 1016.4
20260508120520 48 0.0 0.0 0.00 0.03 0.00 76 1016.4
20260508115520 46 0.0 0.0 0.00 0.03 0.00 78 1016.2
20260508114520 45 0.0 0.0 0.00 0.03 0.00 80 1016.2
20260508113520 44 0.0 0.0 0.00 0.03 0.00 82 1016.0
20260508112520 43 0.0 0.0 0.00 0.03 0.00 82 1015.8
20260508111520 43 0.0 0.0 0.00 0.03 0.00 83 1015.7
20260508110520 42 0.0 0.0 0.00 0.03 0.00 83 1015.7
20260508105520 42 0.0 0.0 0.00 0.03 0.00 83 1015.6
20260508104520 41 0.0 0.0 0.00 0.03 0.00 83 1015.4
20260508103520 41 0.0 0.0 0.00 0.03 0.00 83 1015.3
20260508102540 41 0.0 0.0 0.00 0.03 0.00 83 1015.2
20260508101520 41 0.0 0.0 0.00 0.03 0.00 83 1015.2
20260508100540 41 0.0 0.0 0.00 0.03 0.00 83 1015.2
20260508095519 41 0.0 0.0 0.00 0.03 0.00 83 1015.2
20260508094520 41 0.0 0.0 0.00 0.03 0.00 83 1015.3
20260508093519 41 0.0 0.0 0.00 0.03 0.00 83 1015.4
20260508092520 41 0.0 0.0 0.00 0.03 0.00 83 1015.4
20260508091519 41 0.0 0.0 0.00 0.03 0.00 83 1015.4
20260508090540 41 0.0 0.0 0.00 0.03 0.00 83 1015.4
20260508085519 42 0.0 0.0 0.00 0.03 0.00 83 1015.5
20260508084540 42 0.0 0.0 0.00 0.03 0.00 83 1015.5
20260508083540 42 0.0 0.0 0.00 0.03 0.00 83 1015.5
20260508082519 42 0.0 0.0 0.00 0.03 0.00 84 1015.5
20260508081519 41 0.0 0.0 0.00 0.03 0.00 84 1015.4
20260508080521 41 0.0 0.0 0.00 0.03 0.00 84 1015.4
20260508075519 41 0.0 0.0 0.00 0.03 0.00 84 1015.4
20260508074520 42 0.0 0.0 0.00 0.03 0.00 84 1015.4
20260508073519 42 0.0 0.0 0.00 0.03 0.00 85 1015.3
20260508072519 42 0.0 0.0 0.00 0.03 0.00 85 1015.4
20260508071519 42 0.0 0.0 0.00 0.03 0.00 85 1015.5
20260508070519 42 0.0 0.0 0.00 0.03 0.00 85 1015.5
20260508065519 42 0.0 0.0 0.00 0.03 0.00 84 1015.4
20260508064520 42 0.0 0.0 0.00 0.03 0.00 83 1015.4
20260508063520 42 0.0 0.0 0.00 0.03 0.00 83 1015.4
20260508062520 43 0.0 0.0 0.00 0.03 0.00 83 1015.4
20260508061519 43 0.0 0.0 0.00 0.03 0.00 83 1015.4
20260508060519 43 0.0 0.0 0.00 0.03 0.00 82 1015.4
20260508055519 43 0.0 0.0 0.00 0.03 0.00 81 1015.5
20260508054539 43 0.0 0.0 0.00 0.03 0.00 82 1015.8
20260508053541 44 0.0 0.0 0.00 0.03 0.00 81 1015.8
20260508052519 44 0.0 0.0 0.00 0.03 0.00 81 1015.8
20260508051519 44 0.0 0.0 0.00 0.03 0.00 80 1015.8
20260508050519 44 0.0 0.0 0.00 0.03 0.00 80 1015.7
20260508045519 44 0.0 0.0 0.00 0.03 0.00 79 1015.6
20260508044519 45 0.0 0.0 0.00 0.03 0.00 79 1015.6
20260508043519 45 0.0 0.0 0.00 0.03 0.00 79 1015.5
20260508042519 45 0.0 0.0 0.01 0.03 0.00 79 1015.5
20260508041519 45 0.0 0.0 0.01 0.03 0.00 77 1015.5
20260508040519 45 0.0 0.0 0.01 0.03 0.00 76 1015.5
20260508035520 45 0.0 0.0 0.01 0.03 0.03 75 1015.6
20260508034519 46 0.0 0.0 0.01 0.03 0.03 74 1015.7
20260508033520 46 0.0 0.0 0.01 0.03 0.03 73 1015.6
20260508032519 46 0.0 0.0 0.00 0.02 0.02 72 1015.6
20260508031520 47 0.0 0.0 0.00 0.02 0.02 72 1015.7
20260508030519 47 0.0 0.0 0.00 0.03 0.02 70 1015.7
20260508025520 48 0.0 0.0 0.00 0.03 0.02 68 1015.6
20260508024519 48 0.0 0.0 0.00 0.03 0.02 66 1015.6
20260508023519 49 0.0 0.0 0.00 0.03 0.02 66 1015.5
20260508022519 49 0.0 0.0 0.00 0.03 0.02 63 1015.5
20260508021520 50 0.0 0.0 0.00 0.03 0.02 64 1015.5
20260508020519 50 0.0 0.0 0.00 0.03 0.02 61 1015.4
20260508015519 51 0.0 0.0 0.00 0.03 0.02 62 1015.3
20260508014519 51 0.0 0.0 0.00 0.03 0.02 59 1015.0
20260508013520 52 0.0 0.0 0.00 0.03 0.02 58 1014.9
20260508012519 52 0.0 0.0 0.00 0.03 0.02 58 1014.8
20260508011519 53 0.0 0.0 0.00 0.03 0.02 55 1014.7
20260508010519 53 0.0 0.0 0.00 0.03 0.02 53 1014.5
20260508005519 54 0.0 0.0 0.00 0.03 0.02 52 1014.4
20260508004519 55 0.0 0.0 0.00 0.03 0.02 51 1014.3
20260508003518 55 0.0 0.0 0.00 0.03 0.02 51 1014.2
20260508002539 56 0.0 0.0 0.00 0.03 0.02 49 1014.1
20260508001518 57 0.0 0.0 0.00 0.03 0.02 49 1013.9
20260508000519 57 0.0 0.0 0.00 0.03 0.02 50 1013.9
20260507235520 58 0.0 0.0 0.00 0.03 0.02 49 1013.8
20260507234520 58 0.0 0.0 0.00 0.03 0.02 47 1013.8
20260507233518 59 0.0 0.0 0.00 0.03 0.02 48 1013.8
20260507232519 59 0.0 0.0 0.00 0.03 0.02 45 1013.7
20260507231519 60 0.0 0.0 0.00 0.03 0.02 43 1013.8
20260507230519 60 0.0 0.0 0.00 0.03 0.02 44 1013.8
20260507225519 60 0.0 0.0 0.00 0.03 0.02 42 1013.8